Location: Kile Knob Observatory
(38.6083°N, 79.4792°W)
Time: 09:07:19
(UTC-04:00)

ISS - Visible Passes

Search period start: 17 October 2019 00:00
Search period end: 27 October 2019 00:00
Orbit: 411 x 421 km, 51.6° (Epoch: 17 October)

Date Brightness Start Highest point End Pass type
(mag) Time Alt. Az. Time Alt. Az. Time Alt. Az.
22 Oct -1.5 06:59:45 10° SSW 07:02:37 27° SE 07:05:30 10° ENE visible
23 Oct -0.8 06:12:12 10° SSE 06:14:13 15° SE 06:16:13 10° E visible
24 Oct -3.7 06:58:41 10° SW 07:02:02 85° SE 07:05:24 10° NE visible
25 Oct -2.8 06:11:23 18° SSW 06:13:31 45° SE 06:16:44 10° ENE visible
26 Oct -1.5 05:25:37 23° ESE 05:25:37 23° ESE 05:27:50 10° ENE visible
26 Oct -2.9 06:58:33 10° W 07:01:40 34° NNW 07:04:47 10° NE visible
